Precipitable_Water
0.65 0.54 0.50 0.47 0.52 0.52 0.56 0.58 0.45 0.48 0.47 0.55 0.46 0.43 0.40 0.36 0.32 0.32 0.28 0.39 0.50 0.49 0.42 0.38 0.36 0.39 0.42 0.44 0.47 0.51 0.57 0.62 0.59 0.57 0.59 0.61 0.62 0.70 0.68 0.74 0.73 0.75 0.77 0.79 0.84 0.86 0.91 0.99 0.99 1.00 1.03 1.03 1.02 1.07 1.04 1.00 0.96 0.95 0.96 0.93 0.94 1.07 1.17 1.17 1.15 1.16 1.12 1.08 1.08 1.09 1.06 1.03 1.04 1.03 1.02 0.98 0.98 0.95 0.96 0.95 0.92 0.92 0.93 0.92 0.81 0.79
0.64 0.49 0.45 0.47 0.53 0.52 0.49 0.43 0.46 0.46 0.51 0.50 0.44 0.43 0.38 0.37 0.27 0.29 0.30 0.45 0.52 0.50 0.37 0.39 0.37 0.39 0.44 0.47 0.47 0.55 0.56 0.59 0.60 0.57 0.61 0.62 0.61 0.67 0.69 0.70 0.75 0.73 0.82 0.79 0.81 0.85 0.92 0.97 1.00 1.01 1.01 1.03 0.98 1.01 1.00 0.97 0.98 1.02 0.98 0.98 0.99 1.03 1.11 1.08 1.11 1.08 1.11 1.12 1.07 1.04 1.02 1.05 1.05 1.04 1.01 0.99 1.00 0.98 0.98 0.98 0.98 1.01 1.00 0.95 0.89 0.82
0.50 0.45 0.47 0.51 0.47 0.47 0.49 0.52 0.49 0.49 0.47 0.48 0.45 0.44 0.41 0.43 0.34 0.35 0.37 0.46 0.51 0.48 0.38 0.42 0.43 0.44 0.46 0.49 0.51 0.52 0.57 0.62 0.65 0.59 0.69 0.64 0.64 0.67 0.69 0.76 0.77 0.71 0.75 0.77 0.81 0.81 0.87 0.93 0.94 0.97 1.00 1.03 1.05 1.02 0.98 1.00 0.98 1.00 0.98 0.99 1.01 1.02 1.02 1.07 1.10 1.08 1.06 1.11 1.11 1.06 1.04 1.06 1.02 1.10 1.09 1.06 1.03 1.02 0.99 0.97 0.98 0.98 0.96 0.98 0.93 0.89
0.43 0.42 0.46 0.46 0.46 0.46 0.46 0.42 0.41 0.47 0.53 0.51 0.52 0.40 0.40 0.35 0.37 0.33 0.35 0.49 0.50 0.50 0.48 0.46 0.44 0.44 0.50 0.53 0.54 0.56 0.55 0.59 0.65 0.64 0.66 0.74 0.65 0.71 0.70 0.73 0.73 0.68 0.74 0.71 0.75 0.78 0.85 0.89 0.94 0.96 0.97 1.00 1.08 1.00 0.98 0.97 0.98 1.01 1.01 1.00 1.00 0.99 1.02 1.04 1.02 1.03 1.08 1.09 1.12 1.12 1.10 1.10 1.08 1.02 1.09 1.08 1.05 1.03 0.99 0.94 0.99 1.00 0.95 0.94 0.96 0.92
0.45 0.43 0.45 0.47 0.42 0.40 0.41 0.45 0.41 0.41 0.41 0.48 0.49 0.48 0.40 0.37 0.38 0.42 0.40 0.53 0.53 0.53 0.53 0.47 0.47 0.49 0.52 0.51 0.50 0.55 0.60 0.62 0.59 0.66 0.64 0.68 0.70 0.70 0.72 0.75 0.73 0.71 0.75 0.70 0.75 0.77 0.80 0.87 0.92 0.94 0.97 1.00 0.98 0.99 0.96 0.95 0.97 0.99 0.99 0.99 1.00 0.98 0.98 0.96 0.99 1.00 1.06 1.10 1.12 1.13 1.12 1.10 1.06 1.06 1.04 1.02 0.98 0.97 0.97 0.99 0.97 0.97 0.98 0.98 0.95 0.93
0.47 0.45 0.42 0.40 0.38 0.37 0.35 0.39 0.44 0.43 0.41 0.41 0.48 0.49 0.45 0.43 0.38 0.42 0.47 0.48 0.47 0.46 0.50 0.54 0.41 0.41 0.48 0.51 0.50 0.54 0.56 0.62 0.62 0.61 0.63 0.65 0.67 0.66 0.70 0.74 0.76 0.78 0.75 0.76 0.75 0.76 0.80 0.84 0.90 0.95 0.96 0.95 0.98 0.96 0.98 0.98 0.97 1.01 0.98 0.98 0.99 0.96 0.94 0.99 1.01 1.09 1.11 1.11 1.08 1.06 0.99 0.93 0.93 0.89 0.93 0.90 0.89 0.89 0.91 0.91 1.00 0.99 1.02 0.99 0.94 0.92
0.40 0.41 0.42 0.37 0.32 0.35 0.35 0.37 0.46 0.45 0.42 0.41 0.40 0.48 0.52 0.52 0.48 0.50 0.43 0.46 0.41 0.38 0.56 0.59 0.41 0.36 0.49 0.51 0.52 0.57 0.55 0.57 0.60 0.58 0.59 0.66 0.65 0.62 0.70 0.67 0.68 0.72 0.74 0.76 0.78 0.78 0.75 0.81 0.83 0.87 0.94 0.97 0.96 0.99 1.00 0.96 0.98 0.99 0.96 0.97 0.97 0.94 0.97 1.01 1.04 1.10 1.12 1.08 1.07 1.03 0.99 0.94 0.89 0.86 0.89 0.95 0.97 0.97 0.99 1.03 1.00 1.01 1.02 1.01 0.99 0.97
0.40 0.40 0.33 0.32 0.30 0.31 0.32 0.33 0.38 0.46 0.43 0.38 0.43 0.46 0.51 0.48 0.48 0.54 0.47 0.49 0.48 0.48 0.56 0.56 0.53 0.42 0.40 0.47 0.56 0.61 0.57 0.54 0.56 0.55 0.58 0.60 0.61 0.62 0.67 0.62 0.64 0.65 0.71 0.69 0.76 0.76 0.76 0.79 0.82 0.84 0.94 0.93 0.94 0.97 0.99 0.93 0.96 0.95 0.94 0.93 0.95 0.94 0.94 0.99 1.02 1.06 1.08 1.04 1.03 1.00 0.98 0.97 0.95 0.94 0.88 0.89 0.92 0.98 1.01 1.02 1.03 1.05 1.03 1.07 1.07 1.06
0.39 0.37 0.33 0.31 0.31 0.31 0.33 0.40 0.45 0.45 0.42 0.41 0.43 0.46 0.50 0.57 0.47 0.47 0.50 0.52 0.54 0.46 0.43 0.49 0.54 0.43 0.39 0.49 0.56 0.61 0.51 0.49 0.53 0.54 0.55 0.59 0.58 0.61 0.63 0.64 0.62 0.65 0.67 0.66 0.66 0.68 0.71 0.73 0.78 0.86 0.92 0.90 0.94 0.95 0.94 0.91 0.92 0.96 0.94 0.92 0.94 0.93 0.93 0.98 1.01 1.05 1.05 1.05 1.05 1.02 0.98 0.94 0.94 0.96 0.95 0.98 1.00 0.99 1.01 0.97 1.01 1.00 1.03 1.07 1.09 1.06
0.39 0.37 0.37 0.31 0.30 0.31 0.36 0.36 0.38 0.41 0.41 0.45 0.45 0.49 0.49 0.54 0.63 0.58 0.56 0.54 0.50 0.41 0.39 0.45 0.48 0.44 0.46 0.50 0.50 0.54 0.54 0.49 0.52 0.55 0.54 0.56 0.57 0.59 0.62 0.65 0.63 0.69 0.67 0.64 0.68 0.66 0.69 0.72 0.76 0.87 0.89 0.92 0.95 0.95 0.93 0.94 0.93 0.94 0.92 0.92 0.91 0.88 0.93 0.98 0.99 1.04 1.03 1.07 1.07 1.04 1.01 0.94 0.92 0.97 0.96 0.97 0.93 0.99 1.00 0.97 1.01 1.05 1.06 1.09 1.09 1.10
0.39 0.37 0.36 0.31 0.29 0.30 0.33 0.35 0.39 0.46 0.43 0.46 0.48 0.47 0.59 0.60 0.53 0.61 0.60 0.54 0.44 0.37 0.42 0.49 0.50 0.46 0.35 0.46 0.50 0.43 0.44 0.52 0.51 0.55 0.53 0.58 0.58 0.59 0.60 0.63 0.62 0.67 0.62 0.64 0.66 0.67 0.67 0.69 0.78 0.84 0.76 0.90 0.91 0.93 0.92 0.93 0.92 0.93 0.91 0.89 0.90 0.88 0.92 0.96 0.99 1.02 1.01 1.03 1.04 1.00 0.97 0.93 0.90 0.91 0.93 0.92 0.94 0.98 0.99 0.99 1.00 1.04 1.07 1.11 1.10 1.14
0.36 0.35 0.31 0.31 0.32 0.31 0.33 0.32 0.35 0.38 0.39 0.39 0.46 0.44 0.44 0.45 0.57 0.54 0.48 0.52 0.37 0.35 0.44 0.48 0.45 0.54 0.39 0.39 0.47 0.44 0.52 0.53 0.47 0.46 0.50 0.56 0.57 0.58 0.53 0.61 0.62 0.63 0.62 0.68 0.64 0.64 0.62 0.61 0.75 0.78 0.73 0.86 0.85 0.89 0.87 0.87 0.88 0.90 0.89 0.89 0.88 0.87 0.89 0.91 0.97 1.03 1.00 1.02 1.02 1.01 0.99 0.97 0.94 0.93 0.92 0.92 0.92 0.96 0.98 0.99 1.01 1.06 1.11 1.12 1.14 1.18
0.33 0.33 0.35 0.32 0.34 0.30 0.31 0.31 0.32 0.36 0.37 0.37 0.39 0.40 0.35 0.39 0.39 0.35 0.38 0.33 0.34 0.33 0.42 0.52 0.47 0.42 0.40 0.45 0.42 0.49 0.54 0.55 0.56 0.53 0.52 0.52 0.55 0.57 0.51 0.61 0.63 0.63 0.66 0.64 0.63 0.69 0.58 0.57 0.66 0.68 0.74 0.81 0.83 0.79 0.83 0.86 0.87 0.89 0.88 0.89 0.87 0.84 0.88 0.87 0.95 1.00 1.01 0.99 0.97 0.97 0.98 0.98 1.00 0.97 0.97 0.97 0.96 0.99 0.99 1.02 1.02 1.07 1.07 1.10 1.11 1.14
0.33 0.36 0.39 0.33 0.32 0.33 0.31 0.29 0.33 0.32 0.37 0.37 0.40 0.38 0.36 0.33 0.31 0.30 0.33 0.36 0.36 0.37 0.45 0.50 0.54 0.36 0.39 0.44 0.51 0.49 0.48 0.47 0.52 0.52 0.56 0.54 0.54 0.55 0.49 0.61 0.63 0.63 0.66 0.58 0.64 0.66 0.56 0.55 0.65 0.66 0.74 0.77 0.79 0.76 0.82 0.85 0.87 0.87 0.86 0.89 0.87 0.82 0.89 0.86 0.91 0.96 0.99 0.96 0.95 0.98 0.96 1.00 1.02 1.01 0.99 0.99 0.99 1.00 1.01 1.04 1.06 1.09 1.09 1.07 1.09 1.12
0.30 0.29 0.32 0.31 0.29 0.32 0.29 0.31 0.35 0.37 0.39 0.39 0.45 0.39 0.37 0.34 0.31 0.28 0.31 0.30 0.31 0.34 0.39 0.49 0.41 0.38 0.35 0.34 0.48 0.42 0.44 0.45 0.49 0.51 0.53 0.55 0.56 0.54 0.53 0.61 0.62 0.61 0.62 0.59 0.71 0.62 0.53 0.57 0.62 0.64 0.72 0.76 0.77 0.76 0.81 0.83 0.85 0.87 0.84 0.86 0.86 0.85 0.88 0.85 0.88 0.94 0.94 0.93 0.96 0.96 1.00 0.99 1.00 1.04 1.03 1.03 1.03 1.02 1.02 1.05 1.06 1.07 1.13 1.12 1.06 1.11
0.32 0.32 0.36 0.34 0.35 0.32 0.29 0.31 0.37 0.38 0.37 0.36 0.45 0.49 0.39 0.39 0.46 0.33 0.33 0.34 0.32 0.33 0.35 0.36 0.34 0.38 0.35 0.38 0.39 0.42 0.41 0.43 0.41 0.41 0.51 0.51 0.53 0.50 0.52 0.57 0.59 0.60 0.60 0.61 0.66 0.63 0.59 0.59 0.60 0.65 0.72 0.74 0.75 0.78 0.79 0.80 0.83 0.83 0.83 0.82 0.85 0.86 0.87 0.84 0.88 0.92 0.91 0.89 0.94 0.94 0.97 1.01 1.02 1.02 1.06 1.04 1.03 1.05 1.07 1.05 1.07 1.04 1.12 1.13 1.14 1.13
0.35 0.31 0.38 0.38 0.35 0.32 0.29 0.28 0.31 0.36 0.28 0.40 0.40 0.41 0.42 0.47 0.43 0.40 0.38 0.42 0.38 0.35 0.32 0.38 0.37 0.45 0.41 0.44 0.35 0.36 0.35 0.42 0.38 0.37 0.49 0.50 0.52 0.48 0.52 0.57 0.59 0.61 0.61 0.63 0.68 0.67 0.64 0.57 0.61 0.62 0.67 0.72 0.74 0.77 0.76 0.79 0.81 0.81 0.81 0.80 0.82 0.87 0.87 0.85 0.88 0.90 0.90 0.89 0.89 0.92 0.97 0.99 0.99 0.98 0.99 0.99 1.03 1.09 1.16 1.18 1.15 1.11 1.13 1.14 1.22 1.24
0.31 0.33 0.37 0.36 0.32 0.33 0.34 0.28 0.28 0.33 0.33 0.34 0.34 0.39 0.46 0.52 0.48 0.40 0.31 0.32 0.31 0.28 0.31 0.39 0.35 0.37 0.37 0.32 0.40 0.37 0.36 0.32 0.36 0.32 0.43 0.51 0.46 0.47 0.52 0.57 0.59 0.60 0.62 0.66 0.71 0.74 0.70 0.59 0.57 0.62 0.63 0.71 0.72 0.76 0.77 0.79 0.82 0.85 0.85 0.79 0.84 0.85 0.82 0.85 0.84 0.88 0.90 0.87 0.88 0.89 0.92 0.97 0.97 1.00 1.00 1.00 1.04 1.10 1.09 1.11 1.12 1.09 1.08 1.08 1.19 1.24
0.33 0.28 0.33 0.35 0.33 0.39 0.34 0.29 0.24 0.29 0.30 0.30 0.33 0.42 0.39 0.36 0.34 0.39 0.32 0.27 0.25 0.25 0.28 0.34 0.41 0.44 0.36 0.40 0.41 0.38 0.36 0.35 0.37 0.36 0.34 0.45 0.41 0.48 0.52 0.53 0.56 0.60 0.62 0.65 0.69 0.72 0.71 0.64 0.62 0.60 0.61 0.67 0.70 0.77 0.78 0.81 0.84 0.85 0.87 0.85 0.85 0.86 0.86 0.87 0.87 0.87 0.91 0.90 0.88 0.91 0.90 0.94 0.96 1.03 1.01 1.00 1.04 1.06 1.06 1.08 1.10 1.11 1.14 1.12 1.15 1.15
0.32 0.25 0.34 0.39 0.36 0.36 0.32 0.30 0.21 0.24 0.27 0.28 0.31 0.30 0.35 0.34 0.31 0.29 0.32 0.32 0.34 0.30 0.28 0.30 0.34 0.31 0.38 0.41 0.42 0.42 0.42 0.34 0.41 0.38 0.37 0.42 0.39 0.46 0.51 0.49 0.52 0.57 0.62 0.64 0.69 0.71 0.73 0.70 0.62 0.63 0.60 0.65 0.65 0.72 0.78 0.80 0.82 0.83 0.86 0.86 0.86 0.90 0.91 0.89 0.88 0.85 0.86 0.90 0.90 0.91 0.92 0.94 0.95 1.01 1.00 0.96 1.02 1.03 1.04 1.06 1.06 1.06 1.09 1.09 1.19 1.22
0.28 0.34 0.26 0.32 0.39 0.38 0.30 0.30 0.24 0.25 0.28 0.26 0.24 0.22 0.25 0.35 0.39 0.34 0.36 0.32 0.33 0.29 0.29 0.30 0.27 0.34 0.41 0.47 0.47 0.51 0.46 0.43 0.43 0.41 0.42 0.42 0.39 0.45 0.47 0.49 0.50 0.56 0.58 0.62 0.70 0.74 0.77 0.73 0.67 0.67 0.65 0.68 0.67 0.70 0.78 0.78 0.79 0.82 0.82 0.83 0.86 0.84 0.87 0.87 0.88 0.86 0.86 0.90 0.89 0.91 0.88 0.88 0.92 0.98 1.03 1.02 1.03 1.02 1.05 1.07 1.09 1.09 1.12 1.17 1.13 1.23
0.27 0.30 0.26 0.29 0.30 0.32 0.31 0.33 0.30 0.27 0.28 0.32 0.31 0.29 0.28 0.28 0.34 0.31 0.30 0.38 0.37 0.32 0.32 0.28 0.28 0.34 0.42 0.52 0.48 0.54 0.49 0.48 0.47 0.46 0.46 0.44 0.41 0.47 0.45 0.47 0.50 0.54 0.58 0.62 0.70 0.68 0.75 0.75 0.68 0.71 0.66 0.70 0.66 0.69 0.72 0.77 0.79 0.82 0.79 0.80 0.83 0.84 0.84 0.86 0.87 0.87 0.87 0.90 0.89 0.87 0.91 0.88 0.89 0.96 1.03 1.01 1.01 1.01 1.06 1.07 1.10 1.11 1.15 1.16 1.21 1.18
0.28 0.27 0.27 0.26 0.28 0.31 0.33 0.37 0.38 0.32 0.29 0.30 0.32 0.39 0.41 0.42 0.37 0.33 0.31 0.35 0.36 0.37 0.38 0.40 0.33 0.34 0.47 0.55 0.47 0.50 0.53 0.54 0.53 0.51 0.50 0.49 0.46 0.49 0.49 0.51 0.53 0.56 0.56 0.59 0.69 0.71 0.75 0.76 0.75 0.70 0.65 0.67 0.66 0.68 0.72 0.75 0.73 0.77 0.78 0.78 0.80 0.80 0.80 0.84 0.86 0.88 0.88 0.88 0.86 0.87 0.91 0.90 0.86 0.92 0.96 1.00 1.02 0.98 1.04 1.07 1.03 1.13 1.15 1.11 1.18 1.21
0.34 0.24 0.23 0.25 0.30 0.33 0.34 0.34 0.36 0.38 0.36 0.30 0.32 0.35 0.34 0.33 0.40 0.33 0.37 0.38 0.35 0.37 0.33 0.32 0.31 0.36 0.46 0.47 0.50 0.50 0.52 0.49 0.53 0.56 0.53 0.53 0.50 0.51 0.54 0.52 0.54 0.57 0.59 0.57 0.67 0.75 0.77 0.76 0.79 0.74 0.67 0.67 0.65 0.68 0.72 0.74 0.72 0.76 0.76 0.76 0.78 0.75 0.77 0.81 0.85 0.88 0.87 0.86 0.85 0.86 0.87 0.88 0.88 0.91 0.95 0.98 1.02 0.99 1.00 1.06 1.05 1.14 1.13 1.11 1.19 1.15
0.34 0.32 0.25 0.23 0.24 0.27 0.30 0.37 0.38 0.41 0.39 0.33 0.30 0.33 0.39 0.39 0.45 0.42 0.40 0.41 0.32 0.35 0.37 0.33 0.27 0.35 0.47 0.48 0.48 0.48 0.46 0.53 0.57 0.60 0.53 0.56 0.55 0.56 0.56 0.56 0.55 0.59 0.59 0.56 0.62 0.73 0.71 0.73 0.77 0.79 0.73 0.72 0.66 0.65 0.71 0.75 0.73 0.75 0.75 0.75 0.77 0.74 0.77 0.79 0.85 0.87 0.87 0.84 0.81 0.82 0.82 0.85 0.88 0.88 0.92 0.97 1.00 1.01 1.01 1.02 1.05 1.15 1.11 1.14 1.18 1.19
0.38 0.38 0.33 0.23 0.20 0.21 0.22 0.23 0.25 0.30 0.34 0.41 0.39 0.35 0.35 0.35 0.35 0.35 0.36 0.39 0.31 0.36 0.33 0.35 0.37 0.43 0.51 0.51 0.52 0.49 0.46 0.47 0.51 0.57 0.55 0.60 0.56 0.58 0.57 0.57 0.58 0.57 0.58 0.59 0.61 0.73 0.68 0.78 0.83 0.84 0.82 0.81 0.80 0.73 0.69 0.72 0.75 0.77 0.77 0.73 0.78 0.77 0.75 0.79 0.85 0.86 0.84 0.80 0.77 0.79 0.79 0.81 0.84 0.85 0.89 0.95 0.99 1.00 1.02 1.01 1.04 1.13 1.14 1.17 1.17 1.17
0.40 0.42 0.37 0.34 0.30 0.27 0.33 0.39 0.44 0.41 0.38 0.37 0.40 0.39 0.40 0.45 0.42 0.38 0.40 0.37 0.34 0.39 0.37 0.44 0.44 0.46 0.46 0.49 0.47 0.47 0.50 0.47 0.49 0.51 0.55 0.55 0.55 0.59 0.61 0.60 0.60 0.61 0.62 0.65 0.65 0.77 0.75 0.71 0.71 0.72 0.75 0.72 0.75 0.78 0.71 0.72 0.74 0.76 0.77 0.74 0.77 0.80 0.78 0.77 0.81 0.82 0.79 0.78 0.76 0.77 0.76 0.78 0.80 0.85 0.90 0.95 0.99 1.01 1.03 1.03 1.07 1.10 1.11 1.15 1.16 1.17
0.39 0.35 0.37 0.35 0.34 0.35 0.36 0.36 0.40 0.39 0.35 0.38 0.39 0.41 0.40 0.42 0.45 0.40 0.36 0.34 0.42 0.35 0.32 0.42 0.48 0.44 0.43 0.46 0.48 0.52 0.52 0.56 0.58 0.54 0.51 0.60 0.59 0.66 0.65 0.65 0.65 0.68 0.71 0.74 0.72 0.71 0.74 0.72 0.73 0.68 0.66 0.65 0.63 0.72 0.80 0.77 0.77 0.74 0.77 0.72 0.73 0.80 0.81 0.77 0.75 0.75 0.75 0.76 0.77 0.75 0.75 0.78 0.80 0.86 0.92 0.97 1.00 1.00 1.04 1.06 1.08 1.09 1.08 1.12 1.17 1.18
0.37 0.31 0.34 0.34 0.33 0.35 0.35 0.37 0.43 0.40 0.39 0.39 0.40 0.41 0.40 0.42 0.42 0.40 0.38 0.42 0.44 0.35 0.33 0.45 0.45 0.43 0.47 0.50 0.52 0.61 0.58 0.56 0.53 0.56 0.60 0.60 0.69 0.75 0.76 0.71 0.69 0.64 0.65 0.69 0.74 0.73 0.80 0.88 0.82 0.70 0.67 0.68 0.72 0.76 0.84 0.83 0.80 0.76 0.78 0.77 0.72 0.78 0.82 0.80 0.75 0.74 0.75 0.76 0.77 0.77 0.79 0.79 0.82 0.87 0.92 0.96 0.97 0.99 1.02 1.05 1.08 1.09 1.11 1.12 1.16 1.16
0.47 0.40 0.41 0.38 0.34 0.35 0.36 0.36 0.37 0.38 0.38 0.38 0.39 0.39 0.40 0.39 0.41 0.43 0.41 0.41 0.42 0.39 0.45 0.46 0.50 0.48 0.49 0.52 0.54 0.58 0.57 0.55 0.60 0.63 0.61 0.56 0.56 0.74 0.74 0.72 0.72 0.75 0.66 0.63 0.70 0.74 0.75 0.77 0.89 0.81 0.77 0.78 0.76 0.77 0.82 0.84 0.80 0.73 0.73 0.76 0.75 0.74 0.83 0.83 0.77 0.74 0.74 0.76 0.79 0.82 0.82 0.81 0.83 0.87 0.91 0.92 0.96 0.99 1.04 1.05 1.08 1.09 1.09 1.13 1.15 1.10
0.49 0.47 0.47 0.40 0.35 0.37 0.40 0.41 0.41 0.39 0.37 0.38 0.39 0.37 0.36 0.38 0.41 0.44 0.42 0.42 0.41 0.40 0.43 0.46 0.47 0.45 0.51 0.57 0.52 0.59 0.58 0.59 0.58 0.56 0.56 0.56 0.58 0.70 0.78 0.76 0.71 0.70 0.65 0.67 0.69 0.69 0.82 0.74 0.78 0.90 0.91 0.82 0.75 0.73 0.75 0.80 0.79 0.72 0.71 0.76 0.77 0.74 0.79 0.82 0.78 0.75 0.74 0.75 0.81 0.83 0.82 0.82 0.83 0.87 0.88 0.92 0.95 1.01 1.06 1.08 1.10 1.11 1.11 1.11 1.08 1.03
0.51 0.47 0.50 0.42 0.32 0.31 0.36 0.36 0.40 0.45 0.45 0.41 0.37 0.38 0.38 0.37 0.36 0.41 0.41 0.44 0.41 0.39 0.42 0.46 0.43 0.43 0.50 0.56 0.55 0.55 0.55 0.55 0.53 0.50 0.51 0.53 0.58 0.63 0.65 0.67 0.66 0.65 0.66 0.67 0.70 0.69 0.73 0.76 0.78 0.77 0.82 0.86 0.82 0.75 0.73 0.76 0.78 0.73 0.68 0.73 0.77 0.77 0.78 0.80 0.78 0.73 0.72 0.75 0.80 0.82 0.81 0.84 0.84 0.83 0.87 0.93 0.96 1.03 1.08 1.11 1.12 1.12 1.13 1.11 1.04 1.00
0.55 0.49 0.43 0.40 0.32 0.33 0.39 0.37 0.38 0.45 0.39 0.35 0.44 0.51 0.45 0.42 0.41 0.47 0.49 0.48 0.46 0.46 0.42 0.40 0.45 0.52 0.53 0.57 0.52 0.57 0.59 0.59 0.62 0.64 0.63 0.57 0.55 0.57 0.62 0.63 0.69 0.74 0.73 0.72 0.74 0.75 0.78 0.77 0.78 0.80 0.78 0.87 0.89 0.83 0.77 0.76 0.74 0.71 0.68 0.69 0.76 0.80 0.78 0.78 0.77 0.74 0.72 0.75 0.79 0.81 0.83 0.82 0.81 0.84 0.88 0.95 1.02 1.08 1.12 1.13 1.12 1.13 1.13 1.06 1.04 1.01
0.51 0.46 0.41 0.44 0.34 0.35 0.39 0.39 0.41 0.35 0.28 0.32 0.53 0.58 0.57 0.50 0.45 0.45 0.48 0.52 0.58 0.57 0.58 0.65 0.62 0.62 0.62 0.58 0.54 0.56 0.66 0.68 0.70 0.67 0.69 0.64 0.56 0.55 0.58 0.63 0.70 0.75 0.81 0.82 0.79 0.80 0.83 0.83 0.78 0.73 0.75 0.81 0.89 0.88 0.86 0.83 0.78 0.74 0.72 0.70 0.74 0.77 0.77 0.76 0.76 0.76 0.74 0.75 0.77 0.80 0.83 0.82 0.81 0.86 0.90 0.97 1.04 1.08 1.10 1.11 1.10 1.15 1.17 1.08 1.02 0.99
0.43 0.42 0.37 0.43 0.37 0.34 0.40 0.40 0.34 0.26 0.30 0.54 0.59 0.58 0.56 0.59 0.60 0.57 0.64 0.68 0.60 0.59 0.59 0.62 0.72 0.75 0.62 0.61 0.61 0.61 0.66 0.72 0.72 0.74 0.70 0.77 0.69 0.65 0.63 0.67 0.71 0.72 0.74 0.85 0.87 0.82 0.79 0.79 0.81 0.79 0.75 0.74 0.81 0.79 0.82 0.84 0.81 0.79 0.74 0.71 0.71 0.73 0.76 0.78 0.78 0.77 0.78 0.75 0.75 0.77 0.81 0.82 0.83 0.84 0.92 1.00 1.01 1.06 1.18 1.19 1.17 1.11 1.09 1.05 1.02 0.97
0.44 0.40 0.42 0.40 0.38 0.39 0.39 0.36 0.24 0.25 0.53 0.61 0.63 0.60 0.63 0.64 0.66 0.59 0.54 0.62 0.65 0.65 0.68 0.60 0.61 0.68 0.79 0.76 0.76 0.71 0.67 0.75 0.74 0.73 0.83 0.82 0.83 0.79 0.80 0.75 0.71 0.69 0.69 0.74 0.80 0.94 0.86 0.81 0.78 0.79 0.78 0.77 0.81 0.90 0.83 0.79 0.83 0.82 0.78 0.76 0.72 0.71 0.71 0.77 0.78 0.78 0.80 0.78 0.76 0.76 0.80 0.83 0.85 0.86 0.92 0.94 0.90 0.95 1.12 1.22 1.23 1.15 1.10 1.07 1.04 1.01
0.43 0.49 0.45 0.39 0.45 0.33 0.36 0.34 0.31 0.51 0.50 0.64 0.62 0.62 0.64 0.56 0.63 0.56 0.47 0.61 0.68 0.73 0.72 0.69 0.71 0.72 0.75 0.78 0.78 0.80 0.74 0.75 0.72 0.78 0.80 0.84 0.81 0.91 0.84 0.76 0.72 0.70 0.68 0.79 0.97 0.86 0.83 0.85 0.85 0.84 0.88 0.93 0.94 0.99 0.91 0.87 0.89 0.85 0.82 0.78 0.74 0.71 0.70 0.70 0.74 0.79 0.82 0.81 0.79 0.77 0.79 0.83 0.86 0.89 0.95 0.94 0.94 1.03 1.15 1.19 1.16 1.13 1.12 1.08 1.03 1.00
0.56 0.49 0.54 0.44 0.42 0.43 0.35 0.32 0.32 0.32 0.31 0.46 0.69 0.80 0.79 0.76 0.75 0.73 0.60 0.59 0.76 0.79 0.78 0.76 0.70 0.73 0.73 0.75 0.75 0.76 0.73 0.65 0.57 0.66 0.81 0.86 0.88 0.88 0.78 0.72 0.68 0.66 0.67 0.77 0.97 0.96 0.90 0.97 0.87 0.79 0.76 0.76 0.78 0.84 0.90 0.94 0.94 0.89 0.83 0.79 0.75 0.72 0.71 0.69 0.70 0.78 0.83 0.83 0.84 0.81 0.80 0.84 0.88 0.89 0.91 0.95 0.99 1.09 1.16 1.18 1.18 1.15 1.13 1.08 1.04 1.01
0.63 0.63 0.60 0.51 0.45 0.45 0.38 0.32 0.31 0.31 0.40 0.64 0.68 0.78 0.87 0.79 0.75 0.74 0.59 0.51 0.80 0.85 0.91 0.86 0.74 0.77 0.76 0.74 0.81 0.80 0.65 0.52 0.60 0.71 0.87 0.88 0.89 0.92 0.92 0.94 0.97 0.96 0.97 1.00 0.96 0.92 0.90 0.88 1.03 0.89 0.85 0.80 0.74 0.82 0.98 1.03 0.98 0.90 0.85 0.82 0.78 0.74 0.70 0.70 0.72 0.75 0.81 0.88 0.92 0.90 0.88 0.88 0.93 0.95 0.95 0.95 1.06 1.20 1.23 1.23 1.19 1.17 1.16 1.12 1.09 1.06
0.57 0.57 0.58 0.51 0.47 0.45 0.44 0.38 0.34 0.39 0.47 0.64 0.77 0.82 0.91 0.88 0.79 0.67 0.39 0.41 0.70 0.82 0.90 0.97 0.96 0.95 0.93 0.86 0.84 0.81 0.66 0.57 0.67 0.77 0.89 0.92 0.93 0.96 0.94 0.96 0.95 0.98 0.97 0.94 0.95 0.95 0.92 0.98 0.99 0.96 0.89 0.88 0.93 1.10 1.19 1.10 1.00 0.90 0.85 0.83 0.81 0.75 0.71 0.71 0.72 0.75 0.78 0.88 0.95 0.95 0.90 0.88 0.91 0.95 0.99 1.06 1.10 1.23 1.32 1.28 1.25 1.19 1.13 1.11 1.10 1.07
0.48 0.54 0.55 0.48 0.45 0.45 0.40 0.38 0.39 0.48 0.62 0.76 0.73 0.80 0.79 0.76 0.66 0.46 0.40 0.59 0.86 0.99 1.02 1.02 0.99 0.97 0.99 0.95 0.93 0.83 0.83 0.86 0.87 0.94 0.96 0.94 0.93 0.93 0.97 0.97 0.96 0.94 0.91 0.91 0.92 1.03 1.00 0.99 1.02 1.02 1.07 1.16 1.22 1.30 1.28 1.16 1.04 0.93 0.86 0.84 0.81 0.77 0.75 0.75 0.75 0.76 0.78 0.83 0.89 0.90 0.85 0.86 0.89 0.95 1.05 1.08 1.17 1.26 1.30 1.30 1.24 1.20 1.16 1.13 1.12 1.11
0.50 0.52 0.54 0.56 0.46 0.41 0.41 0.36 0.38 0.49 0.68 0.76 0.76 0.79 0.79 0.60 0.43 0.48 0.75 0.96 0.92 0.93 1.04 1.06 0.96 1.01 0.97 0.95 0.90 0.92 0.99 1.04 1.04 1.02 1.01 0.99 0.94 0.95 0.94 0.92 0.92 0.95 0.97 0.98 1.03 1.06 1.05 1.03 1.06 1.11 1.19 1.25 1.32 1.32 1.34 1.27 1.10 1.01 0.93 0.88 0.84 0.84 0.84 0.80 0.79 0.79 0.80 0.84 0.87 0.88 0.90 0.97 1.06 1.11 1.15 1.17 1.20 1.21 1.25 1.30 1.29 1.23 1.17 1.15 1.13 1.14
0.55 0.50 0.46 0.46 0.52 0.50 0.44 0.38 0.36 0.32 0.62 0.75 0.74 0.74 0.80 0.57 0.65 0.77 0.89 0.97 0.97 0.89 0.92 0.98 0.98 0.96 0.98 0.97 1.05 1.00 1.03 1.10 1.15 1.15 1.19 1.17 1.14 1.07 1.02 0.99 0.95 0.91 0.91 0.92 0.93 0.97 0.95 0.91 0.97 1.03 1.08 1.16 1.19 1.24 1.28 1.29 1.20 1.14 1.10 1.04 1.07 1.05 0.97 0.88 0.83 0.84 0.93 0.95 1.01 1.05 1.05 1.07 1.10 1.15 1.20 1.21 1.22 1.20 1.22 1.25 1.25 1.22 1.19 1.17 1.14 1.10
0.68 0.50 0.49 0.50 0.59 0.47 0.44 0.38 0.40 0.55 0.64 0.72 0.67 0.57 0.73 0.77 0.82 0.84 0.83 0.81 0.87 0.86 0.84 0.86 0.91 0.93 0.95 0.96 0.96 1.01 1.06 1.08 1.13 1.16 1.19 1.19 1.18 1.20 1.23 1.18 1.11 1.09 1.04 1.02 1.01 0.99 0.97 0.92 0.90 0.92 0.94 0.97 1.05 1.13 1.19 1.21 1.24 1.24 1.23 1.18 1.24 1.24 1.22 1.16 1.10 1.07 1.02 1.02 1.05 1.07 1.09 1.13 1.18 1.22 1.25 1.27 1.31 1.28 1.19 1.24 1.20 1.19 1.15 1.16 1.13 1.07
0.67 0.57 0.60 0.49 0.63 0.59 0.53 0.59 0.68 0.70 0.66 0.70 0.69 0.69 0.70 0.75 0.79 0.81 0.82 0.81 0.81 0.84 0.89 0.84 0.85 0.91 0.92 0.90 0.90 0.93 0.95 1.02 1.05 1.09 1.06 1.08 1.14 1.19 1.20 1.26 1.24 1.18 1.13 1.09 1.10 1.15 1.07 0.97 0.94 0.92 0.92 0.97 1.00 1.03 1.06 1.18 1.21 1.19 1.20 1.28 1.31 1.29 1.28 1.28 1.25 1.18 1.10 1.08 1.10 1.13 1.17 1.20 1.23 1.27 1.32 1.29 1.25 1.18 1.13 1.15 1.18 1.17 1.17 1.13 1.10 1.08
0.69 0.70 0.73 0.68 0.63 0.72 0.73 0.74 0.78 0.76 0.71 0.70 0.73 0.71 0.70 0.73 0.78 0.81 0.80 0.78 0.82 0.85 0.87 0.84 0.86 0.90 0.91 0.91 0.83 0.84 0.87 0.93 0.97 1.00 1.04 1.09 1.11 1.15 1.15 1.15 1.16 1.13 1.09 1.08 1.12 1.18 1.16 1.14 1.03 0.97 0.94 0.95 1.00 1.01 0.99 0.98 1.03 1.03 1.08 1.23 1.27 1.29 1.28 1.30 1.29 1.24 1.25 1.23 1.20 1.18 1.19 1.18 1.19 1.21 1.22 1.22 1.23 1.23 1.23 1.18 1.20 1.16 1.15 1.12 1.10 1.08
0.66 0.66 0.64 0.61 0.70 0.63 0.52 0.74 0.72 0.70 0.77 0.78 0.76 0.76 0.77 0.75 0.73 0.73 0.75 0.77 0.77 0.80 0.82 0.85 0.84 0.87 0.89 0.91 0.86 0.83 0.83 0.88 0.89 0.90 0.93 1.00 1.01 1.07 1.09 1.06 1.10 1.15 1.16 1.12 1.10 1.09 1.11 1.10 1.11 1.03 0.98 0.96 1.00 1.02 1.06 1.07 1.03 1.00 1.02 1.03 1.06 1.05 1.05 1.06 1.05 1.05 1.08 1.11 1.16 1.18 1.17 1.15 1.14 1.15 1.17 1.18 1.21 1.21 1.20 1.20 1.18 1.17 1.13 1.10 1.08 1.06
0.54 0.68 0.60 0.61 0.60 0.56 0.57 0.67 0.70 0.76 0.77 0.77 0.76 0.77 0.78 0.81 0.81 0.81 0.79 0.78 0.79 0.79 0.80 0.82 0.84 0.82 0.84 0.85 0.88 0.86 0.86 0.89 0.88 0.88 0.90 0.88 0.93 0.97 0.99 1.00 0.99 0.99 1.04 1.16 1.17 1.15 1.11 1.10 1.05 1.04 1.08 1.05 1.04 1.10 1.10 1.08 1.08 1.08 1.07 1.09 1.13 1.11 1.09 1.06 1.03 1.07 1.07 1.10 1.10 1.11 1.14 1.13 1.16 1.14 1.13 1.14 1.14 1.10 1.12 1.15 1.14 1.11 1.08 1.05 1.04 1.05
0.59 0.63 0.50 0.56 0.53 0.61 0.64 0.62 0.62 0.68 0.65 0.64 0.67 0.71 0.75 0.76 0.76 0.79 0.81 0.81 0.79 0.77 0.78 0.80 0.81 0.81 0.81 0.81 0.84 0.85 0.85 0.88 0.92 0.93 0.94 0.95 0.93 0.95 0.95 0.97 0.98 1.01 0.96 0.99 1.02 1.04 1.08 1.06 1.04 1.05 1.04 1.05 1.09 1.10 1.13 1.12 1.14 1.12 1.10 1.07 1.08 1.11 1.06 1.03 0.99 1.01 1.01 1.04 1.06 1.06 1.08 1.09 1.08 1.07 1.04 1.03 1.05 1.05 1.08 1.10 1.08 1.07 1.06 1.08 1.10 1.12
0.53 0.48 0.55 0.52 0.46 0.48 0.47 0.53 0.56 0.46 0.45 0.52 0.58 0.63 0.67 0.69 0.70 0.72 0.76 0.77 0.79 0.79 0.78 0.78 0.77 0.78 0.80 0.82 0.83 0.83 0.83 0.83 0.89 0.93 0.95 0.96 0.95 0.94 0.96 0.99 1.01 1.05 1.06 1.09 1.07 1.06 1.05 1.02 1.05 1.07 1.07 1.06 1.09 1.09 1.08 1.10 1.10 1.13 1.13 1.13 1.14 1.14 1.10 1.08 1.05 1.02 1.01 1.01 1.01 1.00 0.99 0.99 1.00 1.00 1.01 1.01 1.01 1.05 1.09 1.12 1.11 1.10 1.07 1.06 1.11 1.12
0.46 0.46 0.48 0.45 0.43 0.46 0.53 0.58 0.60 0.54 0.55 0.54 0.57 0.64 0.67 0.66 0.67 0.69 0.70 0.72 0.75 0.77 0.78 0.77 0.78 0.81 0.80 0.80 0.87 0.89 0.88 0.89 0.87 0.91 0.92 0.92 0.94 0.94 0.90 0.89 0.94 0.98 0.98 1.00 1.09 1.12 1.13 1.12 1.10 1.07 1.07 1.10 1.11 1.10 1.09 1.09 1.09 1.08 1.09 1.12 1.10 1.10 1.08 1.08 1.04 1.03 1.04 1.05 1.04 1.05 1.04 1.05 1.05 1.06 1.06 1.05 1.05 1.04 1.03 1.03 1.06 1.07 1.06 1.03 1.02 1.02
Wind_Speed
3 3 2 2 2 3 4 4 2 1 2 2 3 1 2 3 4 6 6 5 5 3 4 6 7 7 7 7 6 7 6 6 6 6 6 6 6 6 5 6 7 7 8 8 9 10 10 9 9 8 8 8 8 8 7 7 7 7 7 7 7 8 8 8 9 10 10 11 11 12 13 13 13 14 14 15 15 15 15 15 16 16 16 17 18 18
3 3 3 4 4 3 4 5 3 1 2 1 1 1 2 3 4 6 5 5 5 4 4 5 6 6 7 6 6 6 5 5 6 5 6 7 6 6 6 7 7 7 8 9 9 9 9 10 9 8 8 8 8 8 7 7 7 7 7 7 8 8 9 9 9 10 10 11 11 12 13 13 13 13 14 14 15 15 16 15 15 16 16 17 17 17
3 3 5 4 3 3 4 5 4 2 1 2 2 2 2 2 4 6 5 4 5 3 3 4 5 6 6 6 5 5 4 4 5 5 6 6 6 6 7 7 7 7 9 10 9 9 9 9 9 9 8 8 8 8 7 7 7 7 8 8 8 8 9 9 10 10 10 11 11 12 12 12 13 13 13 14 15 15 15 15 15 16 16 16 16 17
3 3 4 3 3 4 4 3 3 1 1 2 2 0 0 1 3 3 4 5 4 2 2 4 3 3 5 5 4 4 4 4 5 5 6 6 6 6 7 7 8 8 9 10 9 9 9 9 9 9 8 8 8 8 8 7 7 7 8 8 8 8 9 9 10 10 10 11 11 11 12 12 12 12 13 13 14 14 14 15 15 15 15 16 16 16
6 5 4 3 2 3 3 3 2 1 1 1 1 1 2 0 0 1 4 5 3 2 2 3 3 2 3 3 3 5 4 4 5 6 6 6 6 6 7 8 8 8 9 9 9 9 9 9 9 9 9 8 8 8 8 8 7 7 8 8 8 8 9 9 10 10 10 10 10 11 11 11 11 11 12 12 12 13 13 14 14 14 14 14 15 15
6 6 5 5 4 3 3 3 1 2 2 2 3 3 4 3 2 3 5 4 1 1 1 2 3 3 2 3 3 4 5 4 5 6 6 7 6 6 7 8 8 9 9 9 9 9 9 9 9 9 9 8 8 8 8 8 7 8 8 8 8 8 9 9 9 9 9 9 10 10 10 10 11 11 11 12 12 12 13 13 13 14 14 14 14 14
4 5 5 5 5 5 5 3 0 1 2 3 3 4 6 4 1 3 5 3 0 1 1 1 2 3 4 4 3 3 4 5 5 6 6 7 7 6 7 8 8 9 9 8 9 9 9 9 9 9 9 9 8 8 8 8 8 8 8 8 8 8 8 8 8 9 9 9 9 10 10 10 10 11 11 11 12 12 12 12 12 13 13 13 13 13
3 5 5 3 4 5 5 4 1 1 2 2 3 4 5 3 2 3 4 2 0 1 1 1 1 1 3 4 5 4 3 4 6 6 7 7 7 7 8 8 8 9 9 8 8 9 9 9 9 10 10 9 9 9 9 8 8 9 9 8 8 8 8 8 8 8 8 9 9 9 10 10 10 10 11 11 11 11 11 12 12 12 12 12 12 12
3 6 6 5 5 4 2 3 3 3 2 1 3 4 3 2 2 2 2 1 1 0 1 3 2 1 1 3 5 6 3 3 6 6 7 8 8 9 9 9 8 9 10 8 8 8 8 9 10 10 10 9 9 9 9 9 9 9 9 9 8 8 8 8 8 8 8 9 9 9 9 10 10 10 10 10 11 11 11 12 12 12 12 12 12 12
6 7 6 5 5 4 2 2 4 6 4 2 3 2 0 1 2 1 1 2 1 1 2 6 4 1 1 1 4 6 5 5 5 5 6 8 9 9 9 9 9 9 9 9 8 8 8 9 10 11 10 9 10 9 9 9 9 10 9 9 8 8 8 8 8 8 8 8 8 8 9 9 9 10 10 10 11 11 11 11 12 12 12 12 12 12
7 6 5 5 6 5 4 3 3 5 5 3 2 2 2 2 3 1 1 2 2 1 3 6 5 1 1 2 4 5 5 5 4 4 6 8 10 10 9 10 10 9 9 9 8 9 9 9 10 11 10 10 10 10 9 10 10 10 9 9 9 8 8 8 8 8 7 8 8 8 8 8 9 9 9 10 10 10 10 11 11 11 11 12 12 12
9 8 6 6 7 6 5 5 4 5 5 3 2 1 1 3 4 2 2 2 2 2 2 4 5 1 1 2 4 5 5 6 5 4 6 9 11 10 9 10 10 9 9 9 8 9 9 9 10 11 10 10 10 10 10 10 10 10 10 9 9 8 8 8 8 7 7 7 7 7 7 8 8 9 9 10 10 10 10 10 11 11 11 11 11 11
9 9 8 6 6 5 6 6 5 4 4 4 3 1 1 3 4 4 4 3 2 3 1 5 4 1 2 1 4 6 7 6 5 6 7 8 11 11 10 11 10 8 9 9 8 9 9 9 10 11 10 11 11 10 10 10 10 10 10 9 9 9 8 8 8 7 7 6 6 6 7 7 7 8 9 9 9 9 9 9 10 10 10 10 10 10
6 8 9 8 6 6 7 6 4 4 5 4 4 2 1 1 3 3 3 3 3 4 1 4 5 1 3 2 5 7 7 6 5 6 8 8 11 10 10 12 10 9 9 8 9 10 9 10 10 11 11 11 11 11 10 10 10 10 10 10 10 9 9 8 8 7 6 6 6 6 6 6 7 8 8 8 7 8 8 8 9 9 9 10 9 9
6 6 6 6 4 4 7 8 5 3 4 3 3 4 3 1 2 2 1 1 2 3 3 1 4 2 2 4 6 7 7 6 5 6 8 9 10 10 10 11 10 9 9 8 9 10 9 10 11 11 11 11 11 11 11 10 10 10 10 10 10 10 9 8 8 7 6 6 6 6 6 6 7 7 7 6 6 7 7 7 8 8 8 8 9 9
8 7 6 7 6 4 6 8 6 4 4 3 1 3 2 2 3 2 1 3 2 3 3 1 1 2 1 2 4 6 6 7 6 6 8 9 9 9 10 11 10 9 9 9 9 9 9 11 11 11 11 11 11 11 11 11 10 10 10 10 10 10 9 9 8 7 7 6 6 6 6 5 6 6 5 5 5 6 6 6 6 6 7 7 7 7
7 7 7 8 9 8 7 7 7 7 5 4 3 3 4 4 3 1 1 3 4 4 3 1 2 2 1 0 4 6 5 7 7 5 8 10 8 8 10 11 10 9 9 10 9 8 9 11 11 11 11 11 11 11 11 11 11 11 10 10 11 10 10 9 8 8 7 6 6 6 5 5 5 5 4 5 5 5 5 4 4 5 5 5 5 5
7 8 8 8 9 10 9 8 9 8 5 4 4 3 3 4 4 2 2 3 3 3 2 0 2 2 2 2 4 6 5 7 7 6 8 9 7 7 9 11 10 9 10 10 9 8 9 10 11 12 12 12 12 12 12 12 11 11 11 11 11 11 11 10 9 8 8 7 7 6 6 5 5 5 4 4 4 4 3 3 2 2 3 3 3 4
9 9 9 10 10 8 8 7 9 9 7 7 7 4 2 3 4 4 3 4 4 3 2 1 3 2 2 2 4 5 6 6 7 7 7 8 7 7 9 10 10 9 10 10 9 8 8 10 11 12 12 12 12 12 12 12 12 12 11 11 12 12 12 11 10 9 9 8 7 7 6 5 5 5 4 4 4 4 3 2 1 0 1 2 3 4
9 9 8 9 9 7 7 8 8 9 9 9 8 7 5 4 4 4 4 4 3 3 2 1 3 2 3 3 6 6 6 6 7 7 7 7 6 7 8 8 9 9 9 10 9 9 8 9 11 12 12 12 12 12 12 12 12 12 12 12 12 12 12 12 11 11 10 9 8 8 7 6 6 5 5 5 5 4 4 3 2 1 2 2 3 3
10 10 9 8 9 9 8 8 8 8 8 8 8 9 8 6 5 4 4 5 4 3 3 1 1 3 2 3 5 5 5 5 6 7 7 7 6 7 7 7 7 8 8 9 10 9 8 8 10 11 12 12 12 12 13 13 13 13 13 13 13 13 13 13 13 12 11 10 10 9 8 8 7 7 6 6 6 6 5 4 4 3 3 3 3 4
12 11 11 10 10 10 8 8 8 9 9 9 8 7 7 6 5 5 5 6 5 4 4 3 2 2 1 2 3 4 5 6 7 8 7 7 7 7 7 7 7 7 7 8 9 9 8 8 9 11 11 12 12 12 13 13 13 13 13 13 14 14 14 14 14 13 12 12 11 10 10 9 9 8 7 7 7 6 6 5 5 4 4 4 4 4
13 13 13 12 11 12 11 11 11 10 11 11 9 7 6 6 6 6 6 5 5 5 6 5 4 3 2 2 2 3 4 4 6 7 7 8 8 7 8 7 7 7 7 7 8 9 9 8 9 10 11 12 12 12 13 13 13 13 14 14 14 14 15 15 15 14 13 13 12 12 11 11 10 10 9 8 8 8 7 6 6 5 5 5 5 5
11 13 14 13 12 12 13 13 12 10 10 11 10 9 7 6 6 7 7 6 6 6 6 5 4 4 4 3 3 4 4 3 6 8 7 8 9 9 9 8 7 7 8 7 8 9 9 8 8 9 10 11 12 12 12 13 13 13 14 14 14 15 15 15 15 15 14 13 13 13 12 12 12 11 10 10 9 9 8 7 7 6 6 6 6 6
10 12 13 13 12 12 12 12 12 10 8 9 10 10 8 7 6 5 6 7 6 6 5 5 5 5 5 4 4 6 5 5 7 9 7 7 9 9 9 8 7 7 7 8 9 9 9 8 8 9 9 10 11 12 12 13 13 13 14 14 15 15 15 15 15 15 15 14 14 14 14 13 13 12 12 11 10 10 9 8 8 8 8 7 7 7
12 12 12 13 12 11 10 9 10 10 9 9 10 9 9 10 10 8 7 8 8 6 5 4 6 6 5 4 5 6 7 7 8 8 7 8 9 9 10 9 7 7 7 8 9 10 10 8 8 9 9 10 10 11 12 12 12 13 13 14 15 15 16 16 16 16 15 15 15 15 15 14 14 14 13 12 11 11 10 10 9 9 9 8 8 8
13 14 14 14 14 12 11 10 9 11 12 12 12 11 9 9 11 10 10 9 7 7 6 5 7 7 6 5 6 6 6 7 8 8 8 8 9 10 11 10 8 7 8 9 9 10 10 9 9 9 9 10 10 11 11 12 12 12 12 13 14 14 15 16 16 16 16 16 16 16 16 15 15 15 14 13 12 12 11 11 10 10 10 10 9 9
15 16 17 17 17 17 15 14 12 12 13 15 15 14 11 10 10 11 12 11 8 8 8 6 6 8 9 9 7 6 6 6 7 8 8 8 10 11 12 11 9 8 8 10 10 10 10 10 10 9 10 10 11 11 11 11 12 12 12 13 13 13 14 15 16 16 16 16 16 16 16 16 16 15 15 14 13 12 12 12 12 11 11 11 11 10
17 18 18 19 19 19 19 17 15 14 15 16 16 15 14 13 13 12 13 13 12 11 9 8 9 10 10 10 8 7 8 8 8 8 9 9 10 11 12 12 10 9 10 11 12 10 10 11 11 11 10 10 11 12 11 11 12 12 12 13 13 13 13 14 15 15 15 15 16 16 16 16 16 16 15 15 14 13 13 13 12 12 12 12 12 11
15 15 16 18 19 19 19 18 17 18 17 16 17 16 15 15 14 13 13 13 14 13 11 11 12 12 11 10 9 8 8 9 10 10 10 11 11 12 13 13 11 11 11 12 12 11 11 11 12 12 11 10 11 12 12 11 12 12 13 13 13 13 13 13 14 15 15 15 15 16 16 16 16 16 15 15 15 14 14 14 14 13 13 13 13 13
14 13 14 15 17 18 18 18 18 18 18 18 18 17 16 15 14 14 14 13 14 14 13 13 14 14 12 11 10 9 8 9 12 12 12 13 12 11 13 14 14 14 14 13 13 12 11 11 12 12 11 11 11 11 11 11 11 13 13 13 14 14 14 14 14 15 15 15 15 16 16 16 16 16 16 16 15 15 15 15 15 15 14 14 14 14
14 14 14 14 16 18 19 20 18 16 16 17 17 16 17 16 15 14 14 13 13 13 13 13 14 13 12 11 11 11 10 9 10 10 11 13 13 12 12 12 13 14 14 14 14 14 12 12 12 12 12 12 12 12 11 11 11 13 14 14 14 15 15 15 15 16 16 16 16 16 16 16 17 17 16 16 16 16 16 16 16 15 15 15 15 15
15 15 15 15 16 17 19 21 19 17 16 15 14 14 16 17 16 15 15 15 13 13 12 12 13 12 12 11 11 11 10 8 7 8 9 11 13 13 13 13 13 15 15 14 15 14 13 12 12 12 12 13 14 13 13 12 12 13 13 14 14 15 15 16 16 16 17 17 17 17 17 17 17 17 17 17 16 16 16 16 16 16 16 16 16 16
17 17 17 16 16 17 18 19 18 17 17 15 14 14 14 16 17 16 15 14 13 12 12 12 12 12 12 12 12 11 10 8 9 9 8 9 10 12 14 14 14 15 15 15 15 15 15 14 13 12 13 14 14 14 14 13 13 13 13 14 15 15 16 16 16 17 17 18 18 17 18 18 18 18 18 17 17 17 18 18 17 17 17 16 16 16
18 18 18 17 17 18 18 17 17 17 15 14 15 15 13 12 14 15 13 12 12 12 13 13 13 12 12 12 13 13 11 9 9 9 10 10 11 12 13 14 14 14 14 13 13 15 16 15 14 14 14 14 15 15 14 14 14 13 13 14 15 16 16 16 17 17 17 18 18 18 18 18 19 19 18 18 18 19 19 19 18 17 17 17 17 17
19 19 18 18 18 18 17 17 17 15 13 13 13 13 13 12 12 13 12 12 12 13 14 15 15 14 14 15 14 14 13 11 9 9 10 10 11 12 13 13 13 14 13 11 11 13 15 15 15 15 15 15 15 15 15 15 15 15 14 14 15 16 17 18 18 18 18 19 19 19 19 19 19 20 20 20 20 20 20 19 18 17 18 18 18 18
21 20 19 18 19 19 19 18 17 15 14 13 12 11 12 13 13 13 12 12 13 14 14 15 15 15 17 18 17 16 15 13 11 10 10 10 10 11 12 12 12 14 15 14 12 12 13 14 15 15 14 14 15 16 16 16 16 16 15 15 16 17 18 18 19 19 19 19 20 20 20 20 20 20 21 21 21 21 20 19 19 19 18 19 19 19
19 19 18 17 18 19 19 19 18 16 15 13 12 12 12 12 13 14 14 13 13 14 14 13 14 16 16 17 17 16 15 16 14 11 10 11 10 11 12 12 12 14 15 14 13 12 13 14 15 16 16 15 16 17 18 17 17 17 16 16 17 17 18 19 20 20 20 20 20 20 21 21 21 22 22 22 22 21 21 20 20 19 19 20 20 20
15 16 17 16 17 17 18 19 18 17 15 13 13 14 13 12 12 13 14 15 14 15 15 14 14 14 14 15 15 13 13 15 13 11 11 12 11 11 11 11 12 12 12 12 12 13 14 15 16 17 17 17 17 18 19 18 17 17 17 17 18 18 19 20 20 20 21 21 21 21 21 21 22 23 23 22 22 21 21 21 20 20 20 20 21 21
14 16 17 17 17 17 17 18 17 16 15 15 16 17 16 15 14 13 15 15 15 15 16 15 13 11 11 12 13 11 11 13 12 11 12 12 12 11 11 11 11 12 12 13 13 14 14 15 16 17 17 17 18 19 19 19 18 18 18 18 18 19 19 20 20 21 21 21 22 22 22 23 23 23 23 23 22 22 22 22 21 20 21 21 21 22
17 17 18 18 19 18 18 18 17 16 16 18 19 19 18 19 16 14 15 15 15 15 16 15 12 10 9 11 11 11 12 13 14 14 13 12 12 13 12 11 11 11 12 12 13 14 14 14 15 16 17 18 19 19 19 18 18 18 19 19 19 19 20 20 20 21 22 22 23 24 24 24 24 24 23 23 23 22 22 22 21 21 21 22 22 23
19 18 18 18 18 18 19 19 18 17 17 19 20 18 17 17 17 16 17 18 17 17 16 14 12 11 11 11 11 12 13 14 14 15 14 13 13 13 13 13 12 12 12 11 12 13 13 14 14 15 16 17 18 18 18 18 18 18 19 19 20 20 20 21 21 22 22 23 23 23 23 23 23 23 23 23 23 23 23 23 23 23 23 23 24 25
19 19 18 18 17 17 18 19 18 17 16 18 18 16 14 14 15 16 18 19 19 18 17 15 14 14 14 14 12 12 13 13 12 12 12 12 12 13 14 14 13 12 12 12 12 13 13 14 14 15 17 17 17 18 18 18 18 18 18 19 19 19 20 20 21 21 21 21 21 21 21 21 21 22 22 23 24 24 24 24 24 25 26 26 26 27
18 18 18 17 17 17 17 17 17 17 16 15 15 15 14 14 14 16 17 18 18 19 19 19 18 17 17 18 16 15 15 15 14 13 13 13 14 14 14 12 12 12 13 13 13 13 13 13 14 14 16 17 18 18 18 17 17 18 18 18 19 19 19 19 19 20 20 21 21 21 21 21 22 23 24 25 25 25 25 26 27 27 27 27 27 27
17 17 17 17 17 17 16 16 16 16 16 15 15 16 16 16 16 16 17 18 19 19 19 20 20 20 20 20 20 19 19 19 18 17 16 16 16 15 14 13 12 12 13 14 15 15 15 14 14 15 15 16 17 18 18 18 18 18 19 20 20 20 19 19 20 20 20 21 22 22 23 23 23 24 25 26 27 27 28 28 29 28 28 27 28 28
16 17 17 16 16 16 16 16 16 16 16 16 17 18 17 18 17 17 18 19 20 20 20 21 21 21 21 21 21 21 22 22 21 20 19 19 20 19 18 18 16 15 15 16 17 17 17 16 16 16 16 16 17 17 18 18 19 19 20 21 22 22 21 22 22 21 21 22 23 24 24 25 25 26 27 28 28 29 30 30 29 29 28 28 28 28
14 16 16 16 16 17 17 17 17 17 16 16 17 18 18 18 18 18 19 20 21 22 22 22 22 22 22 21 21 22 22 22 22 21 21 21 22 23 22 22 20 19 18 18 18 19 18 18 19 19 19 19 19 19 19 20 20 20 21 22 22 23 23 23 24 25 25 25 26 26 27 27 28 29 30 30 31 31 31 30 29 28 28 28 28 28
14 15 15 15 16 18 18 18 19 20 18 18 18 18 18 17 17 17 19 20 21 22 22 23 23 23 23 23 22 23 24 23 23 23 22 21 22 23 23 23 23 22 22 21 21 20 20 20 21 21 21 21 22 22 22 22 22 23 23 23 24 25 26 27 27 28 28 29 29 30 30 30 30 30 31 31 31 30 29 28 28 28 28 28 28 27
15 15 15 15 15 15 16 17 19 20 20 20 20 20 20 20 20 19 19 19 20 21 22 23 24 24 24 24 23 24 24 24 24 24 24 23 23 23 24 24 24 24 24 24 23 23 23 24 23 23 23 23 23 23 23 23 23 24 24 25 26 27 28 28 27 27 27 28 28 28 29 29 29 29 29 29 28 27 27 27 27 28 27 27 26 26
15 15 15 15 15 15 16 17 18 19 20 20 20 21 22 22 22 22 21 20 20 19 20 21 22 23 24 23 23 23 23 23 24 24 25 24 24 24 25 25 25 25 25 26 25 25 25 25 25 25 25 25 24 24 24 24 24 25 25 25 26 26 26 26 26 26 26 27 27 27 27 27 27 27 27 27 26 26 26 26 26 26 26 26 26 26
15 16 16 16 16 17 17 17 17 18 19 19 19 20 21 21 22 23 23 23 22 21 20 20 20 21 22 23 23 23 23 23 24 24 24 24 24 24 24 24 24 25 25 25 25 25 25 25 25 25 26 26 26 25 25 25 26 26 26 26 26 26 26 26 26 26 26 26 26 26 26 26 26 26 26 26 26 26 25 25 25 25 25 26 26 26
Wind_Direction
289 264 298 304 229 205 203 222 234 167 150 68 34 47 98 95 100 103 116 129 130 122 109 117 119 123 135 135 142 149 153 164 156 148 153 146 145 151 147 147 142 138 141 141 139 134 135 138 135 133 131 127 127 125 123 120 114 111 106 101 100 96 93 91 88 89 88 85 83 82 80 79 78 77 76 74 74 75 74 74 72 72 73 71 70 72
318 267 279 273 244 222 211 227 240 233 201 143 33 20 42 61 100 111 121 131 124 118 124 125 125 133 141 138 143 152 155 164 159 156 162 153 149 156 154 151 146 143 147 141 133 134 137 140 141 136 134 133 131 129 127 123 118 115 111 107 103 99 97 95 94 93 91 88 86 85 83 82 81 80 79 76 75 75 75 75 73 72 75 73 70 71
310 280 279 260 238 236 213 222 243 254 14 40 51 45 27 53 104 110 116 134 133 130 134 131 134 141 147 147 145 153 159 166 168 166 165 161 158 160 159 156 152 148 150 144 137 141 144 145 144 141 139 138 135 132 129 126 123 120 116 112 107 104 102 98 96 94 92 90 87 87 85 83 82 81 80 78 76 76 75 75 74 73 74 74 71 70
271 291 279 236 233 251 223 214 242 233 48 38 46 18 237 85 93 112 123 132 126 91 99 128 139 141 146 152 154 162 165 167 175 174 171 171 167 165 162 159 159 155 151 148 147 149 149 149 148 145 143 141 140 136 133 132 129 125 122 117 112 109 105 101 98 96 94 92 89 88 87 85 84 82 80 79 77 75 74 74 74 74 74 72 71 70
260 287 270 222 233 263 249 236 240 294 292 235 187 249 262 247 198 140 120 117 100 54 91 152 171 156 148 164 172 174 177 178 179 177 177 176 170 169 167 161 162 162 155 152 154 153 152 153 152 151 148 145 145 141 138 137 135 131 126 122 117 112 109 104 101 100 98 94 91 89 88 86 85 83 82 82 79 76 75 75 75 76 74 72 72 71
259 280 252 247 260 259 272 252 203 321 295 241 222 232 245 242 198 135 119 109 82 74 132 211 216 205 197 210 200 178 180 183 181 180 181 176 171 175 169 163 165 166 162 159 156 156 158 156 154 155 152 150 149 145 143 142 139 136 132 128 122 117 113 110 106 103 100 96 92 91 89 87 86 85 84 84 82 79 78 77 76 76 76 74 74 72
247 255 233 259 271 256 261 248 186 315 286 277 256 218 217 222 160 142 141 118 78 183 131 348 259 217 214 220 217 204 190 181 182 182 181 177 175 179 169 163 170 169 166 165 160 160 160 157 158 158 155 155 154 148 146 145 143 141 138 133 127 123 119 114 111 107 102 99 95 93 91 89 89 88 87 85 84 82 80 79 77 77 77 76 75 73
250 247 231 257 272 277 267 236 226 268 265 289 255 228 222 205 173 188 170 120 329 217 161 11 356 202 227 223 204 207 206 180 186 186 183 183 179 178 171 165 171 170 166 168 166 164 160 158 161 160 159 160 156 151 149 148 148 146 142 139 132 127 124 119 116 111 106 103 99 96 93 91 91 90 88 87 85 84 82 79 77 76 76 76 76 74
286 258 252 265 258 285 284 209 210 212 217 298 243 239 266 250 213 191 188 253 308 58 210 240 259 11 294 228 185 185 201 191 190 188 183 185 182 179 176 172 171 168 168 171 170 166 160 161 163 161 163 163 157 154 154 152 152 151 147 143 137 133 130 126 121 116 110 106 102 99 95 94 93 91 91 89 87 86 83 80 78 76 76 76 76 75
275 245 254 277 252 269 288 211 203 198 202 286 261 227 88 336 357 71 247 288 345 66 252 238 228 4 352 212 172 173 194 206 193 185 185 184 183 181 178 175 169 166 172 173 169 165 161 163 163 162 166 165 158 156 157 156 155 154 152 149 144 140 137 132 128 122 116 110 105 101 99 97 96 94 93 92 91 89 85 81 78 76 77 77 77 77
255 230 251 265 247 275 294 247 211 210 220 252 259 195 142 360 13 35 294 320 352 309 251 227 205 191 12 185 191 186 186 191 175 170 187 186 182 179 175 173 167 166 172 170 167 166 164 164 161 162 169 165 158 159 160 159 159 158 157 155 150 147 145 140 135 129 123 115 108 105 103 100 100 99 97 96 94 91 85 81 79 77 78 78 78 77
244 235 251 244 239 269 276 247 230 238 241 233 246 248 238 316 346 353 324 332 328 305 230 190 176 169 344 174 196 205 189 185 183 173 180 182 178 174 171 171 167 165 166 166 171 169 165 166 163 165 172 165 160 164 164 163 163 162 162 160 157 154 153 148 143 137 130 122 114 111 107 102 103 104 103 100 97 92 86 82 80 78 78 79 79 77
248 247 258 240 236 259 256 241 219 229 249 225 227 317 327 309 324 317 311 330 312 304 207 166 161 63 342 200 181 193 189 185 192 182 172 174 174 170 170 171 165 161 163 169 174 168 166 170 168 170 173 167 165 170 170 168 166 166 166 166 164 161 159 155 151 147 138 129 122 118 115 110 108 108 107 104 99 93 88 84 82 80 78 78 77 75
261 263 260 242 237 241 242 245 227 236 266 246 229 261 270 301 324 300 293 326 312 308 353 169 190 347 14 130 153 167 173 167 173 174 165 166 169 167 170 169 164 161 164 171 171 166 171 175 172 175 174 170 172 174 175 172 170 170 171 171 171 168 166 163 158 154 147 139 132 126 123 119 117 113 109 106 101 96 91 87 85 83 81 78 76 74
254 259 248 240 247 227 226 239 245 248 261 262 233 219 206 226 289 296 270 307 315 317 340 182 213 254 61 95 121 136 146 146 153 160 157 159 162 167 173 169 165 166 166 171 169 166 174 177 175 178 176 175 177 178 179 176 173 175 176 176 177 175 173 171 167 162 155 149 143 138 131 125 125 122 115 111 107 100 95 91 89 86 83 80 78 75
253 253 237 241 247 237 236 236 236 242 253 277 247 203 218 235 257 299 257 251 278 291 300 348 163 193 106 79 118 128 130 134 135 142 152 157 158 167 176 172 168 170 169 171 169 168 175 178 179 180 179 181 182 181 182 181 179 180 181 182 182 181 180 178 175 172 165 160 155 150 143 135 132 131 127 125 119 109 101 96 92 89 85 82 78 71
247 252 248 247 238 235 254 249 235 240 247 260 251 236 257 244 234 303 288 258 279 289 291 42 129 191 250 186 147 136 131 135 134 141 154 157 158 166 176 176 174 174 172 172 171 171 177 181 182 183 184 184 185 186 186 185 185 186 187 188 187 186 186 185 184 182 177 174 169 163 157 151 146 141 140 142 135 125 115 107 100 91 83 78 70 58
239 254 253 255 255 247 250 256 250 243 232 229 232 239 260 245 235 273 303 288 285 297 320 57 193 216 195 170 154 143 143 144 141 146 156 157 159 167 172 175 179 180 172 171 176 174 175 183 186 185 188 188 188 189 189 190 191 191 193 194 193 192 191 192 192 190 189 187 183 179 174 169 167 160 156 156 155 149 142 133 114 86 69 60 46 32
236 255 249 242 257 254 234 244 252 243 234 232 235 236 247 249 243 247 281 302 298 300 312 157 173 225 234 209 197 177 159 155 150 147 155 161 163 170 170 171 178 179 170 172 181 178 174 183 189 189 191 191 191 193 192 194 195 196 198 199 199 199 198 198 199 198 198 198 195 193 189 187 186 180 175 175 178 181 181 179 173 61 25 19 11 9
234 244 248 237 248 254 234 237 246 241 236 235 239 247 246 247 256 256 265 282 279 281 297 152 158 232 268 226 215 198 169 165 165 157 160 164 167 174 172 170 175 174 172 177 182 182 178 184 191 193 195 195 195 197 197 197 199 200 202 203 203 205 204 204 205 204 205 205 204 203 201 201 200 198 198 198 201 206 211 224 244 276 310 332 342 348
234 232 243 241 243 250 241 233 242 244 233 227 236 250 253 248 255 266 262 260 262 266 288 295 209 254 270 213 209 205 185 182 177 171 171 168 171 178 173 171 173 171 175 179 182 187 185 185 192 195 198 199 198 201 202 201 203 204 205 207 207 208 208 208 209 210 211 210 210 210 210 211 210 208 211 215 219 221 225 238 254 273 291 305 318 328
234 232 241 242 238 244 243 240 250 250 239 238 245 251 255 251 249 264 268 263 268 268 271 275 257 266 276 205 208 208 203 205 192 182 181 177 176 176 172 173 175 174 179 180 181 188 188 188 193 195 200 203 202 204 206 205 207 208 209 211 211 212 212 212 212 213 214 214 215 215 216 218 218 217 218 222 227 229 233 245 256 270 280 288 301 312
237 235 239 244 242 242 244 248 255 254 248 250 252 247 251 252 243 245 257 266 269 260 262 268 253 240 244 230 224 215 215 225 210 195 190 187 183 178 174 177 179 181 188 189 185 187 191 193 194 196 204 206 204 206 207 208 211 212 213 214 214 215 215 215 215 216 216 217 218 218 219 221 222 223 224 227 232 233 238 249 258 266 274 281 291 301
238 233 236 245 249 246 243 247 252 254 253 250 246 245 253 266 259 243 245 266 276 264 265 272 253 231 243 259 244 225 227 242 224 213 204 192 189 187 183 182 186 187 193 202 197 190 193 198 196 199 207 209 208 209 209 211 215 215 216 217 218 218 217 216 217 217 218 219 220 221 222 224 225 227 229 231 235 237 241 249 256 262 271 278 284 293
234 234 236 241 247 247 243 245 246 247 257 255 249 250 256 264 267 256 253 257 262 268 278 276 256 237 246 268 267 244 233 226 220 219 215 198 195 197 191 189 194 192 195 206 202 192 193 200 201 203 209 212 211 210 210 213 217 219 219 220 220 220 219 218 218 218 219 220 223 224 225 226 228 229 232 235 239 242 244 248 254 261 269 274 279 286
233 236 238 238 242 244 244 248 246 245 254 257 257 264 267 260 252 252 260 254 250 269 283 258 246 251 259 276 278 258 238 228 226 224 213 205 207 204 198 199 205 201 202 208 204 197 196 201 208 208 209 214 215 210 208 212 218 220 221 222 223 221 220 220 219 220 221 222 224 227 227 228 230 232 234 238 242 245 247 250 254 260 266 271 275 279
238 238 239 242 245 245 249 253 249 249 251 250 259 269 268 261 253 249 257 257 257 273 267 228 230 253 266 274 279 268 251 242 240 237 225 219 224 216 203 204 213 210 211 214 210 206 204 205 212 215 213 216 219 214 208 210 217 220 219 221 222 222 221 222 221 222 223 224 225 228 229 230 232 234 236 240 243 246 248 250 254 259 265 270 271 272
242 241 239 245 250 251 255 251 241 248 251 245 252 259 255 258 261 254 253 252 251 261 258 242 247 261 264 267 272 267 259 252 245 249 243 227 228 226 210 204 211 217 225 226 218 215 215 215 219 222 219 219 222 220 213 212 218 222 221 220 221 221 220 221 221 222 223 224 225 228 230 231 233 235 237 240 243 245 248 251 254 259 264 267 268 267
242 242 241 246 250 252 256 252 242 247 251 244 247 253 254 260 264 259 253 247 247 255 255 254 264 268 264 266 271 268 263 254 246 252 251 233 229 227 214 208 215 226 236 235 226 223 227 226 227 229 225 222 224 223 218 217 220 223 223 221 220 220 219 219 220 221 221 222 224 227 230 232 234 236 237 240 243 246 249 252 256 260 263 265 265 265
242 241 243 248 251 252 256 258 254 251 248 243 244 247 253 259 260 260 256 251 252 255 252 250 258 264 265 266 270 272 270 260 249 247 247 244 242 231 220 221 230 233 236 236 230 229 233 233 233 234 229 225 226 226 223 222 224 225 225 223 221 221 219 218 219 221 222 224 225 227 229 231 233 235 238 240 244 247 249 253 257 260 262 263 263 263
242 245 250 252 254 256 259 263 263 258 253 250 246 242 247 255 257 256 256 255 254 253 253 255 257 260 263 262 263 265 268 268 259 250 246 248 249 240 231 231 234 235 236 236 232 229 233 237 238 236 232 228 229 231 230 228 228 227 226 225 223 222 221 221 222 224 226 227 228 229 231 232 234 236 238 241 245 248 250 254 257 258 260 260 260 262
245 249 255 255 254 256 257 259 262 263 265 264 255 244 242 248 254 254 252 252 252 253 259 263 260 259 261 261 261 263 267 272 266 256 251 250 249 248 245 240 241 243 241 237 234 230 230 237 239 237 235 232 230 233 235 233 231 230 228 227 226 225 225 226 226 228 229 230 231 232 233 235 236 237 240 243 246 249 252 254 256 257 258 258 258 261
247 248 252 254 255 255 254 256 262 267 267 262 256 253 252 250 251 252 250 251 253 256 261 262 260 260 260 261 262 263 266 270 264 261 264 258 251 250 253 252 251 252 250 247 240 231 230 235 236 236 237 234 231 232 236 235 234 233 231 230 230 229 229 230 231 232 232 233 234 234 236 238 239 240 242 245 247 251 254 255 256 257 256 256 258 260
247 249 251 251 252 255 256 258 261 261 259 253 249 258 264 258 251 247 249 253 255 259 264 263 262 262 259 261 265 264 263 260 256 262 271 267 258 254 256 255 247 245 251 254 243 234 235 238 235 235 236 234 233 234 236 237 236 236 235 234 233 233 233 233 234 234 235 236 237 237 238 240 241 243 245 247 250 254 256 255 256 256 256 256 258 260
246 248 250 247 248 253 255 256 254 252 255 256 255 258 263 262 253 245 248 259 262 265 268 264 263 267 265 265 267 264 259 255 258 267 270 268 267 265 261 256 247 243 249 254 247 240 239 237 234 235 236 235 235 235 236 238 238 238 238 237 236 236 236 236 235 236 238 238 239 239 240 242 244 246 247 249 253 256 256 256 255 254 255 257 259 261
246 246 247 246 246 248 249 248 247 249 256 260 261 261 255 253 252 247 250 264 267 267 268 263 263 269 271 271 272 267 260 254 259 271 274 271 270 268 262 254 249 248 249 253 256 250 242 237 235 236 238 239 237 235 238 241 240 239 240 241 240 240 239 239 238 238 239 240 241 242 242 244 246 248 249 251 254 255 255 254 254 253 256 259 261 264
245 243 244 244 244 244 247 247 245 248 252 254 260 265 255 248 250 250 251 260 265 265 266 264 265 268 269 270 274 273 266 257 255 265 274 274 270 268 263 254 251 252 253 256 259 255 248 243 237 235 239 241 238 239 242 242 240 240 242 243 244 243 243 243 243 242 241 241 243 244 245 247 249 250 251 253 254 254 253 253 253 255 257 260 262 265
245 241 240 243 244 245 247 248 246 247 248 249 257 269 268 257 249 248 250 255 261 267 268 264 264 266 267 268 270 271 267 258 254 261 269 268 268 268 265 259 255 252 252 255 256 254 254 252 243 239 243 245 244 245 245 241 239 240 243 245 247 247 246 247 247 247 246 244 245 247 248 250 251 252 254 255 256 255 253 252 254 256 260 262 263 266
243 243 240 241 244 246 248 248 248 248 249 253 259 265 273 271 256 251 255 255 258 270 273 265 258 258 260 263 264 263 258 252 251 258 264 262 262 264 264 265 264 260 258 260 260 258 258 256 250 247 248 248 247 246 244 241 240 241 244 247 249 250 250 250 249 250 250 248 248 249 251 254 255 255 256 256 257 256 254 253 255 259 262 264 265 268
238 242 242 241 239 241 245 247 250 248 247 256 262 261 268 274 265 257 258 257 260 267 266 257 251 249 253 262 266 260 251 249 250 255 260 258 256 257 260 263 267 270 271 270 266 263 261 258 253 252 251 250 248 246 243 240 240 242 246 248 249 251 253 252 251 252 252 250 249 251 255 256 256 256 257 257 257 257 255 255 257 261 264 266 268 270
242 244 245 245 242 241 244 249 252 248 248 260 265 266 270 270 261 256 256 256 261 268 265 261 262 264 261 265 271 267 258 256 256 256 258 256 253 255 259 260 262 267 271 270 267 265 265 262 258 256 255 254 252 248 245 243 243 245 247 249 252 253 254 255 254 253 253 252 252 255 257 256 255 256 258 258 258 258 257 256 259 263 266 268 269 271
246 248 248 249 249 247 247 251 253 249 253 264 267 270 274 263 253 257 260 253 255 267 273 275 281 284 277 270 270 271 272 271 265 260 260 260 257 258 259 258 259 261 263 266 267 267 266 264 261 258 258 260 259 256 254 252 250 250 250 251 255 257 257 257 257 255 255 255 256 257 258 257 256 256 257 258 259 258 257 258 261 264 266 268 270 273
244 248 250 253 255 253 249 248 248 247 259 270 267 266 269 260 254 263 264 256 256 266 274 281 289 292 289 281 270 262 265 271 270 264 264 268 269 269 265 260 259 260 261 262 263 263 263 261 259 258 257 260 261 262 263 262 257 255 254 256 259 261 261 260 258 257 257 257 257 259 259 258 257 257 259 260 260 258 258 259 261 264 266 268 271 274
246 249 250 250 253 255 252 248 246 248 260 269 263 257 259 262 264 268 266 262 264 269 271 275 282 285 285 283 277 267 264 270 274 273 275 279 281 280 274 267 264 266 268 268 266 264 262 259 258 257 256 256 258 260 262 263 260 259 259 260 262 263 263 261 260 259 260 260 259 260 261 261 260 260 261 262 261 261 262 262 264 267 268 269 271 274
248 251 253 252 250 251 250 248 247 252 260 265 263 259 261 266 270 271 269 266 269 272 272 272 276 280 280 279 278 275 274 277 278 276 277 279 279 278 278 280 283 282 277 273 272 270 264 258 257 257 255 256 257 257 257 258 257 258 260 261 263 264 263 262 262 262 262 261 261 262 263 264 264 263 263 264 265 265 265 264 265 268 269 269 271 274
249 252 255 252 247 246 249 251 252 256 262 266 266 265 267 269 270 272 273 271 272 273 274 273 274 277 278 277 276 275 276 279 280 277 276 275 273 273 276 281 286 287 282 275 272 271 268 262 260 259 258 258 258 257 257 257 255 256 257 259 261 263 263 263 264 266 265 264 263 264 263 264 264 265 265 266 267 268 268 267 267 268 269 270 272 274
252 258 255 249 248 251 254 255 255 256 262 268 268 268 271 272 271 271 272 273 274 274 275 275 275 275 276 276 276 274 274 276 278 277 276 275 274 274 275 277 278 279 279 276 272 270 267 263 261 261 260 259 259 259 260 259 259 259 259 259 260 261 263 263 265 267 267 266 265 266 265 265 266 267 267 268 269 271 271 268 267 267 269 270 271 274
256 261 258 255 257 256 255 256 256 254 258 265 267 268 272 274 275 274 273 273 274 275 275 275 275 275 275 274 274 272 271 272 274 274 273 274 274 273 273 275 275 273 273 273 272 270 268 265 263 262 260 259 260 261 261 262 263 263 263 262 263 263 265 266 267 266 266 265 266 267 268 268 268 269 270 270 271 272 271 268 267 269 270 271 272 273
256 259 261 263 261 256 255 260 261 257 258 263 266 266 269 271 274 277 278 277 277 277 276 275 274 273 274 274 273 272 270 268 269 269 269 270 271 270 270 272 273 271 270 270 270 270 269 268 267 265 263 262 262 262 262 263 264 264 264 265 266 268 268 268 268 267 267 268 268 269 269 269 269 269 269 270 270 271 271 270 271 271 272 274 274 275
258 260 264 263 261 260 262 264 265 263 263 265 267 267 268 270 270 273 276 277 277 279 279 277 274 272 272 272 271 271 270 268 268 268 269 269 270 271 271 271 272 273 272 270 269 268 269 269 267 265 264 263 263 263 262 264 265 266 267 268 269 269 270 269 269 269 269 269 269 269 268 268 268 268 269 269 269 270 271 272 274 274 275 275 275 276
260 261 263 262 262 266 267 265 264 265 265 266 267 268 269 269 269 269 270 270 271 274 276 276 276 274 273 273 272 270 268 269 269 269 269 269 269 271 272 271 271 273 273 272 271 269 269 269 269 268 266 265 264 264 264 265 266 266 268 268 269 269 270 269 270 270 269 268 269 268 268 268 269 269 269 269 269 269 270 272 275 277 278 277 276 275